This demonstration page uses our WeatherBlox Daily Observations layout. Learn more.

Left ArrowRight Arrow

Hourly Observations for February 23, 2016

Temp ( °F °C ) Dew Point ( °F °C ) Humidity (%) Winds ( mph kmh ) Pressure ( in mb ) Visibility ( mi km ) Precip ( " mm )
12:14 am 00:14 Clear 32 undefined 28 -2 87 87 NE 8 13 30.12 1020 10 16 N/A
12:35 am 00:35 Clear 32 undefined 28 -2 87 87 ENE 9 15 30.12 1020 10 16 N/A
12:54 am 00:54 Clear 30 -1 27 -3 86 86 ENE 8 13 30.12 1020 10 16 N/A
1:14 am 01:14 Clear 30 -1 27 -3 86 86 NE 8 13 30.12 1020 10 16 N/A
1:35 am 01:35 Clear 30 -1 27 -3 86 86 NE 7 11 30.12 1020 10 16 N/A
1:54 am 01:54 Clear 30 -1 27 -3 86 86 NE 8 13 30.12 1020 10 16 N/A
2:14 am 02:14 Clear 30 -1 25 -4 80 80 NE 9 15 30.15 1021 10 16 N/A
2:35 am 02:35 Clear 30 -1 25 -4 80 80 NE 8 13 30.12 1020 10 16 N/A
2:54 am 02:54 Clear 28 -2 25 -4 86 86 NE 8 13 30.12 1020 10 16 N/A
3:14 am 03:14 Clear 28 -2 25 -4 86 86 NE 8 13 30.12 1020 10 16 N/A
3:35 am 03:35 Clear 28 -2 25 -4 86 86 NE 8 13 30.09 1019 10 16 N/A
3:54 am 03:54 Clear 28 -2 25 -4 86 86 NE 7 11 30.09 1019 10 16 N/A
4:14 am 04:14 Clear 28 -2 23 -5 80 80 ENE 7 11 30.09 1019 10 16 N/A
4:35 am 04:35 Clear 27 -3 23 -5 86 86 NE 9 15 30.09 1019 10 16 N/A
4:54 am 04:54 Clear 28 -2 23 -5 80 80 NE 7 11 30.09 1019 10 16 N/A
5:14 am 05:14 Clear 27 -3 23 -5 86 86 NE 8 13 30.09 1019 10 16 N/A
5:35 am 05:35 Clear 27 -3 23 -5 86 86 NE 6 9 30.09 1019 10 16 N/A
5:54 am 05:54 Clear 27 -3 23 -5 86 86 ENE 6 9 30.09 1019 10 16 N/A
6:14 am 06:14 Clear 27 -3 23 -5 86 86 NE 6 9 30.09 1019 10 16 N/A
6:35 am 06:35 Clear 27 -3 23 -5 86 86 NE 8 13 30.09 1019 10 16 N/A
6:54 am 06:54 Clear 27 -3 23 -5 86 86 NE 7 11 30.09 1019 10 16 N/A
7:14 am 07:14 Clear 27 -3 23 -5 86 86 NE 7 11 30.06 1018 10 16 N/A
7:35 am 07:35 Sunny 27 -3 23 -5 86 86 NNE 7 11 30.06 1018 10 16 N/A
7:54 am 07:54 Sunny 27 -3 23 -5 86 86 N 7 11 30.12 1020 10 16 N/A
8:14 am 08:14 Sunny 28 -2 23 -5 80 80 NNE 8 13 30.12 1020 10 16 N/A
8:35 am 08:35 Sunny 32 undefined 25 -4 75 75 NE 9 15 30.12 1020 10 16 N/A
8:54 am 08:54 Sunny 32 undefined 25 -4 75 75 NE 10 17 30.12 1020 10 16 N/A
9:14 am 09:14 Sunny 34 1 25 -4 70 70 ENE 10 17 30.12 1020 10 16 N/A
9:35 am 09:35 Sunny 36 2 27 -3 70 70 NE 12 19 30.12 1020 10 16 N/A
9:54 am 09:54 Sunny 37 3 27 -3 65 65 NE 10 17 30.12 1020 10 16 N/A
10:14 am 10:14 Sunny 37 3 25 -4 60 60 ENE 12 19 30.12 1020 10 16 N/A
10:35 am 10:35 Sunny 41 5 25 -4 53 53 ENE 14 22 30.09 1019 10 16 N/A
10:54 am 10:54 Sunny 43 6 27 -3 53 53 ENE 14 22 30.06 1018 10 16 N/A
11:14 am 11:14 Sunny 43 6 25 -4 49 49 ENE 16 26 30.06 1018 10 16 N/A
11:35 am 11:35 Sunny 45 7 27 -3 49 49 NE 15 24 30.03 1017 10 16 N/A
11:54 am 11:54 Sunny 46 8 27 -3 46 46 ENE 15 24 30.03 1017 10 16 N/A
12:14 pm 12:14 Sunny 46 8 27 -3 46 46 NE 16 26 30.03 1017 10 16 N/A
12:35 pm 12:35 Sunny 46 8 27 -3 46 46 NE 13 20 30.03 1017 10 16 N/A
12:54 pm 12:54 Sunny 48 9 27 -3 43 43 NE 16 26 30.03 1017 10 16 N/A
1:14 pm 13:14 Sunny 48 9 27 -3 43 43 ENE 14 22 30.03 1017 10 16 N/A
1:35 pm 13:35 Sunny 50 10 28 -2 43 43 ENE 13 20 30.00 1016 10 16 N/A
1:54 pm 13:54 Sunny 50 10 28 -2 43 43 NE 16 26 30.00 1016 10 16 N/A
2:14 pm 14:14 Sunny 50 10 28 -2 43 43 NE 14 22 30.00 1016 10 16 N/A
2:35 pm 14:35 Sunny 50 10 30 -1 47 47 NE 15 24 29.97 1015 10 16 N/A
2:54 pm 14:54 Partly Cloudy 50 10 30 -1 47 47 NNE 16 26 29.97 1015 10 16 N/A
3:14 pm 15:14 Partly Cloudy 52 11 30 -1 44 44 NE 15 24 29.94 1014 10 16 N/A
3:35 pm 15:35 Sunny 50 10 30 -1 47 47 NE 15 24 29.97 1015 10 16 N/A
3:54 pm 15:54 Sunny 50 10 30 -1 47 47 NE 15 24 29.94 1014 10 16 N/A
4:14 pm 16:14 Sunny 50 10 30 -1 47 47 NE 16 26 29.94 1014 10 16 N/A
4:35 pm 16:35 Sunny 48 9 30 -1 50 50 NE 15 24 29.94 1014 10 16 N/A
4:54 pm 16:54 Sunny 48 9 30 -1 50 50 NE 14 22 29.94 1014 10 16 N/A
5:15 pm 17:15 Sunny 48 9 30 -1 50 50 NE 12 19 29.94 1014 10 16 N/A
5:35 pm 17:35 Sunny 46 8 32 undefined 57 57 NE 14 22 29.94 1014 10 16 N/A
5:54 pm 17:54 Sunny 45 7 30 -1 57 57 NE 15 24 29.91 1013 10 16 N/A
6:15 pm 18:15 Sunny 45 7 32 undefined 61 61 NE 16 26 29.91 1013 10 16 N/A
6:34 pm 18:34 Clear 45 7 30 -1 57 57 NE 15 24 29.91 1013 10 16 N/A
6:55 pm 18:55 Clear 43 6 30 -1 61 61 NE 17 28 29.91 1013 10 16 N/A
7:14 pm 19:14 Clear 43 6 30 -1 61 61 NE 17 28 29.91 1013 10 16 N/A
7:34 pm 19:34 Clear 43 6 30 -1 61 61 NE 16 26 29.91 1013 10 16 N/A
7:55 pm 19:55 Partly Cloudy 41 5 28 -2 61 61 NE 17 28 29.91 1013 10 16 N/A
8:14 pm 20:14 Clear 41 5 28 -2 61 61 NE 20 31 29.91 1013 10 16 N/A
8:34 pm 20:34 Partly Cloudy 39 4 28 -2 65 65 NE 20 31 29.91 1013 10 16 N/A
8:55 pm 20:55 Mostly Cloudy 39 4 28 -2 65 65 NE 15 24 29.88 1012 10 16 N/A
9:14 pm 21:14 Cloudy 39 4 28 -2 65 65 NE 16 26 29.88 1012 10 16 N/A
9:35 pm 21:35 Cloudy 37 3 28 -2 70 70 NE 18 30 29.88 1012 10 16 N/A
9:54 pm 21:54 Cloudy 37 3 28 -2 70 70 NNE 18 30 29.88 1012 10 16 N/A
10:15 pm 22:15 Cloudy 37 3 28 -2 70 70 NNE 18 30 29.85 1011 10 16 N/A
10:34 pm 22:34 Cloudy 37 3 27 -3 65 65 NE 22 35 29.85 1011 10 16 N/A
10:54 pm 22:54 Cloudy 36 2 27 -3 70 70 NE 13 20 29.83 1010 10 16 N/A
11:15 pm 23:15 Cloudy 36 2 27 -3 70 70 NE 17 28 29.83 1010 10 16 N/A
11:34 pm 23:34 Cloudy 36 2 27 -3 70 70 NE 20 31 29.80 1009 10 16 N/A
11:54 pm 23:54 Cloudy 36 2 27 -3 70 70 NNE 17 28 29.80 1009 10 16 N/A

Powered by AerisWeather